This is the latest recevied weather packets stored in our database for station/object N8ESC. If no packets are shown the sender has not sent any weather packets the latest 10 day(s).
| Time | Temp. | Humidity | Pressure | Rain* | Wind** | Luminosity | Snow |
|---|---|---|---|---|---|---|---|
| 1777592818 | 3.89° C | 82% | 1014.1 hPa | 0 mm | - | 27 W/m² | - |
| 1777592516 | 3.89° C | 82% | 1014.3 hPa | 0 mm | - | 33 W/m² | - |
| 1777592216 | 4.44° C | 82% | 1014 hPa | 0 mm | - | 30 W/m² | - |
| 1777591913 | 4.44° C | 81% | 1014.2 hPa | 0 mm | - | 44 W/m² | - |
| 1777591609 | 4.44° C | 82% | 1014.1 hPa | 0 mm | - | 76 W/m² | - |
| 1777591305 | 4.44° C | 82% | 1014.1 hPa | 0 mm | - | 52 W/m² | - |
| 1777591002 | 4.44° C | 81% | 1014.1 hPa | 0 mm | - | 39 W/m² | - |
| 1777590702 | 4.44° C | 80% | 1014.1 hPa | 0 mm | - | 42 W/m² | - |
| 1777590399 | 4.44° C | 80% | 1013.9 hPa | 0 mm | - | 47 W/m² | - |
| 1777590096 | 4.44° C | 80% | 1014.2 hPa | 0 mm | - | 42 W/m² | - |
| 1777589792 | 4.44° C | 81% | 1014.2 hPa | 0 mm | - | 45 W/m² | - |
| 1777589491 | 4.44° C | 81% | 1014.2 hPa | 0 mm | - | 48 W/m² | - |
| 1777589186 | 4.44° C | 82% | 1014.1 hPa | 0 mm | - | 53 W/m² | - |
| 1777588883 | 4.44° C | 81% | 1014.2 hPa | 0 mm | - | 47 W/m² | - |
| 1777588579 | 4.44° C | 81% | 1014.2 hPa | 0 mm | - | 53 W/m² | - |
| 1777588274 | 4.44° C | 81% | 1014.1 hPa | 0 mm | - | 60 W/m² | - |
| 1777587970 | 4.44° C | 81% | 1014.1 hPa | 0 mm | - | 74 W/m² | - |
| 1777587666 | 4.44° C | 81% | 1014.1 hPa | 0 mm | - | 87 W/m² | - |
| 1777587366 | 5° C | 81% | 1014.3 hPa | 0 mm | - | 122 W/m² | - |
| 1777587062 | 4.44° C | 80% | 1014.3 hPa | 0 mm | - | 172 W/m² | - |
| 1777586758 | 5° C | 79% | 1014.3 hPa | 0 mm | - | 185 W/m² | - |
| 1777586454 | 4.44° C | 80% | 1014.3 hPa | 0 mm | - | 199 W/m² | - |
| 1777586148 | 5° C | 82% | 1014.3 hPa | 0 mm | - | 148 W/m² | - |
| 1777585847 | 4.44° C | 82% | 1014 hPa | 0 mm | - | 129 W/m² | - |
| 1777585546 | 4.44° C | 82% | 1014.4 hPa | 0 mm | - | 127 W/m² | - |
* Rain latest hour (hover to see other rain measurements)
** Current wind speed in m/s (hover to see current wind gust speed)